Location: ??
(34.5117°N, 135.6386°E)
Time: 12:11:58
(UTC+00:00)

Daily predictions for brighter satellites

Satellite Brightness Start Highest point End
(mag) Time Altitude Azimuth Time Altitude Azimuth Time Altitude Azimuth
Cosmos 1933 Rocket 3.6 12:04:44 75° NNW 12:04:44 75° NNW 12:08:53 10° N
SL-16 R/B 3.2 12:00:08 10° N 12:04:55 31° ENE 12:04:55 31° ENE
Cosmos 1741 Rocket 3.9 12:06:43 63° SSW 12:07:34 87° WNW 12:12:52 10° NNE
Meteor 1-18 Rocket 4.2 12:06:18 10° N 12:11:33 62° ENE 12:11:33 62° ENE
IGS 5A 4.2 12:13:29 49° N 12:13:29 49° N 12:16:33 10° N
Terra 3.5 12:25:39 24° NNE 12:25:39 24° NNE 12:28:03 10° N
Cosmos 2322 Rocket 3.2 12:18:59 10° N 12:23:27 35° NE 12:23:27 35° NE
Cosmos 1459 Rocket 4.4 12:25:43 50° ENE 12:25:43 50° ENE 12:30:56 10° NNE
USA 267 4.3 12:24:19 10° NNE 12:30:25 43° NW 12:36:30 10° WSW
Lacrosse 5 2.9 12:25:46 10° NNW 12:29:44 38° NNE 12:29:44 38° NNE
Cosmos 1763 Rocket 4.0 12:28:04 10° NNW 12:32:20 56° N 12:32:20 56° N
Cosmos 2360 Rocket 3.8 12:30:28 10° N 12:33:53 22° NE 12:33:53 22° NE
Cosmos 1980 Rocket 3.5 12:38:44 10° NW 12:43:37 31° WSW 12:44:08 30° WSW
Cosmos 1802 Rocket 4.4 13:01:24 59° N 13:01:24 59° N 13:06:28 10° N
USA 234 3.9 13:01:24 43° NE 13:01:40 43° NE 13:07:45 10° NNW
ATLAS 3B R/B 2.8 13:06:11 65° NW 13:06:11 65° NW 13:12:39 10° NNE
Cosmos 2333 Rocket 4.3 13:07:17 10° NNE 13:09:49 17° NE 13:09:49 17° NE
SL-16 R/B 4.1 13:44:11 10° NW 13:46:47 23° WNW 13:46:47 23° WNW
Cosmos 2219 Rocket 4.1 13:45:46 10° N 13:48:17 23° NNE 13:48:17 23° NNE
Cosmos 2322 Rocket 4.4 14:03:21 10° NW 14:05:15 18° WNW 14:05:15 18° WNW
Cosmos 2360 Rocket 4.3 14:13:45 10° NW 14:15:38 21° NW 14:15:38 21° NW
Cosmos 2237 Rocket 4.4 14:43:15 10° N 14:45:18 20° NNE 14:45:18 20° NNE
Cosmos 2333 Rocket 4.5 14:50:17 10° NNW 14:51:48 19° NW 14:51:48 19° NW
Cosmos 2227 Rocket 4.3 15:22:22 22° NNE 15:22:22 22° NNE 15:24:15 10° NNE
SL-16 R/B 4.1 15:52:32 29° NE 15:52:32 29° NE 15:57:08 10° N
Cosmos 2263 Rocket 4.4 16:02:43 18° ENE 16:02:43 18° ENE 16:04:31 10° NE
SL-16 R/B 4.1 15:56:34 10° N 15:59:00 25° N 15:59:00 25° N
Resurs 1-4 Rocket 4.3 15:58:15 10° NNE 16:00:10 21° NE 16:00:10 21° NE
Cosmos 2344 4.5 15:56:59 10° NNW 16:07:30 89° ENE 16:09:53 67° SSE
Cosmos 2297 Rocket 4.4 16:14:50 18° NNW 16:14:50 18° NNW 16:16:59 10° N
USA 229 DEB 4.4 16:23:03 46° NNE 16:23:03 46° NNE 16:27:43 10° NNE
USA 229 4.4 16:23:09 46° NNE 16:23:09 46° NNE 16:27:47 10° NNE
ADEOS II 3.9 16:32:54 10° NE 16:35:54 26° ENE 16:35:54 26° ENE
USA 215 3.5 16:58:28 10° NE 17:04:22 59° ESE 17:04:22 59° ESE
CZ-2D R/B 3.4 16:59:45 10° N 17:03:01 34° NNW 17:03:01 34° NNW
Atlas Centaur 2 3.7 17:08:36 32° ESE 17:08:36 32° ESE 17:12:59 10° E
ARIANE 5 R/B 3.9 17:05:08 10° NNE 17:09:33 33° E 17:09:33 33° E
ATLAS 3B CENTAUR R/B 4.0 16:55:08 10° W 17:14:34 61° SSW 17:23:11 10° ESE
Cosmos 2266 Rocket 4.4 17:11:53 10° N 17:16:46 54° NNW 17:16:46 54° NNW
Cosmos 1953 4.4 17:29:54 24° N 17:29:54 24° N 17:31:36 10° N
Cosmos 1125 Rocket 4.1 17:28:05 51° E 17:28:05 51° E 17:32:48 10° NNE
Meteor 2-21 4.3 17:28:17 10° N 17:34:23 83° E 17:34:46 78° SE
SL-16 R/B 3.7 17:37:39 28° NW 17:37:39 28° NW 17:40:59 10° NNW
IRS-1D 4.3 17:32:57 10° N 17:36:42 42° NNW 17:36:42 42° NNW
Cosmos 2228 4.1 17:42:22 39° E 17:42:23 39° E 17:46:30 10° NNE
Resurs 1-4 Rocket 3.9 17:38:51 10° NNW 17:41:14 19° NW 17:41:14 19° NW
Cosmos 2263 Rocket 3.2 17:44:25 33° NW 17:44:25 33° NW 17:48:41 10° N
Meteor 1-16 Rocket 4.0 17:44:08 85° N 17:44:08 85° N 17:49:31 10° N
Nadezhda 2 Rocket 4.3 17:46:07 10° N 17:52:19 89° W 17:53:42 57° S
Aurora 2 Rocket 4.5 17:52:18 44° SSW 17:53:29 47° S 18:03:18 10° ESE
IDEFIX/ARIANE 42P 2.8 17:51:47 10° NNE 17:56:58 64° E 17:58:06 50° SSE
IRS-P3 4.3 17:52:39 10° N 17:57:40 54° WNW 17:57:40 54° WNW
Hubble Space Telescope 2.8 18:00:52 19° SE 18:00:52 19° SE 18:02:25 10° ESE
NOSS 2-2 (C) 4.1 18:05:01 42° E 18:05:01 42° E 18:07:59 10° NE
Meteor 1-21 Rocket 4.2 18:01:21 10° NNW 18:06:36 55° W 18:06:36 55° W
Cosmos 1844 Rocket 2.7 18:05:40 49° S 18:07:08 71° ESE 18:12:41 10° NNE
Cosmos 1356 Rocket 3.8 18:06:59 55° ESE 18:07:23 58° E 18:11:27 10° NNE
ATLAS CENTAUR R/B 2.8 18:10:06 26° NNW 18:10:06 26° NNW 18:12:47 10° N
Cosmos 1908 4.4 18:13:26 34° NNW 18:13:26 34° NNW 18:16:00 10° N
OAO 2 Rocket 3.3 18:11:58 66° SW 18:12:40 79° SSE 18:17:57 10° E
OAO 1 Rocket 4.3 18:11:48 60° W 18:12:49 88° N 18:18:12 10° E
Cosmos 1758 Rocket 3.4 18:11:42 10° N 18:16:02 84° W 18:16:22 75° SSW
Cosmos 1048 Rocket 3.9 18:10:54 10° NNW 18:16:04 89° ENE 18:20:10 17° SSE
ADEOS II 3.3 18:12:48 10° NNW 18:16:50 26° WNW 18:16:50 26° WNW
Cosmos 2058 Rocket 3.9 18:15:17 26° SSE 18:17:27 47° E 18:21:44 10° NNE
Meteor 2-8 Rocket 4.4 18:17:30 43° SSW 18:19:34 71° W 18:25:41 10° N
MINOTAUR IV R/B 4.4 18:15:44 10° NNW 18:20:12 76° WSW 18:21:00 58° S
Delta 2 Rocket 3.0 18:22:13 70° NE 18:22:13 70° NE 18:25:40 10° E
H-2A R/B 3.0 18:18:23 10° SE 18:22:17 45° ENE 18:26:11 10° N
Cosmos 1417 Rocket 4.4 18:20:01 39° SSW 18:22:24 69° W 18:28:37 10° N
OAO 3 Rocket 3.1 18:22:05 50° W 18:23:23 87° S 18:28:21 10° E
USA 281 4.4 18:20:08 10° NE 18:26:09 38° ESE 18:32:08 10° S
Spot 4 Rocket 4.1 18:22:28 10° N 18:27:32 59° WNW 18:28:52 44° SW
CZ-2C R/B 2.5 18:25:11 10° N 18:28:58 82° WNW 18:29:19 71° SW
Cosmos 1825 Rocket 3.4 18:30:59 10° NNW 18:35:16 63° W 18:36:29 43° SSW
Cosmos 1300 2.5 18:35:04 51° S 18:35:59 87° W 18:39:48 10° N
Lacrosse 5 rocket 3.6 18:35:17 12° SSE 18:38:14 22° ESE 18:41:44 10° ENE
Landsat 5 3.5 18:37:36 10° SSE 18:41:30 74° ENE 18:45:33 10° N
SL-08 R/B 4.2 18:44:50 30° W 18:44:50 30° W 18:49:08 10° NW
Cosmos 1386 Rocket 4.3 18:38:51 10° N 18:44:52 81° W 18:50:53 10° S
Cosmos 1953 Rocket 3.5 18:41:23 10° N 18:45:52 76° W 18:49:44 13° S
Cosmos 1943 4.1 18:41:42 10° NW 18:45:50 26° W 18:45:50 26° W
ERS-2 2.4 18:43:07 10° SSE 18:46:43 66° ENE 18:50:20 10° N
USA 215 4.2 18:41:49 10° NNE 18:47:39 36° NW 18:51:42 19° W
ARIANE 5 R/B 3.7 18:44:31 10° NNW 18:48:44 25° WNW 18:49:53 23° W
Atlas Centaur 2 2.8 18:51:12 25° WSW 18:55:19 64° S 19:03:14 10° E
Cosmos 1900 4.4 18:53:38 10° NNW 18:58:48 89° ENE 19:03:56 10° SSE
USA 102 3.9 18:52:50 10° SSE 18:59:04 75° WSW 19:01:37 16° NNW
MSX 4.1 18:54:43 10° N 19:00:14 48° WNW 19:04:05 19° SW
Cosmos 883 Rocket 4.5 18:55:05 12° SSW 19:00:57 70° W 19:07:14 10° N
SeaSat 1 2.4 18:58:06 10° NNE 19:03:03 87° WNW 19:07:09 15° SSW
Cosmos 494 Rocket 4.2 19:03:56 10° NNW 19:08:50 45° WSW 19:13:46 10° S
CZ-4C R/B 3.4 19:07:55 25° SW 19:09:11 34° W 19:12:15 10° NNW
Cosmos 1745 Rocket 4.3 19:04:52 10° NNW 19:10:44 45° W 19:16:32 10° SSW
NOSS 2-2 (D) 4.4 19:10:13 20° W 19:11:37 26° NW 19:14:44 10° N
USA 267 4.3 19:09:52 10° ESE 19:16:07 50° NE 19:22:21 10° NNW
PSLV R/B 3.9 19:14:43 10° N 19:18:54 47° WNW 19:22:44 12° SW
CZ-2C R/B 2.6 19:23:03 10° N 19:27:29 48° WNW 19:32:02 10° SSW
Cosmos 1892 2.8 19:24:40 10° N 19:28:30 78° E 19:32:18 10° S
Meteor 1-31 Rocket 3.5 19:25:40 10° NNE 19:29:26 54° E 19:33:08 10° S
TSX-5 3.1 19:28:05 10° SSW 19:31:17 90° W 19:34:26 10° NNE
Cosmos 1484 Rocket 3.1 19:27:57 10° NNE 19:31:40 65° ESE 19:35:22 10° S
deb Chang Zheng 4 3.7 19:27:52 10° N 19:32:08 57° WNW 19:36:24 10° SSW
ADEOS Rocket 3.9 19:24:56 10° SSE 19:32:31 74° ENE 19:40:18 10° N
Cosmos 1408 3.5 19:31:36 10° N 19:35:13 53° E 19:38:50 10° SSE
ATLAS 3B CENTAUR R/B 4.1 19:27:16 10° W 19:35:51 23° SW 19:40:45 10° S
IDEFIX/ARIANE 42P 4.4 19:33:28 10° NW 19:35:57 14° WNW 19:38:27 10° W
CZ-4B R/B 4.0 19:33:39 10° NNE 19:37:18 70° ESE 19:41:00 10° S
ADEOS 3.6 19:33:15 10° N 19:38:25 66° WNW 19:43:34 10° SSW
Aureole 2 Rocket 3.2 19:36:25 10° S 19:39:07 42° ESE 19:41:56 10° NNE
Hubble Space Telescope 1.6 19:36:12 12° WSW 19:39:41 35° S 19:43:28 10° ESE
Cosmos 1812 Rocket 3.5 19:39:14 10° SSW 19:43:30 62° W 19:47:48 10° N
Cosmos 2278 Rocket 2.2 19:40:47 10° SSW 19:46:27 86° WNW 19:52:09 10° NNE
Cosmos 1709 Rocket 4.5 19:45:04 10° NNW 19:50:39 38° W 19:56:12 10° SSW
Cosmos 1174 4.3 19:49:14 10° SW 19:53:00 50° WNW 19:57:45 10° NNE
Cosmos 1076 Rocket 3.5 19:50:11 10° N 19:54:32 72° W 19:58:52 10° S
OAO 2 Rocket 3.5 19:52:15 10° W 19:57:35 85° N 20:02:48 10° E
DASH 4.0 19:49:27 10° W 20:05:22 55° S 20:09:04 10° ESE
ATLAS CENTAUR Rocket 4.5 19:31:16 10° WSW 20:10:03 51° S 20:16:04 10° E
